Regional Weather Roundup
Issued by NWS Austin/San Antonio, TX

Home | Current Version | Previous Version | Text Only | Print | Product List | Glossary On
Versions: 1 2 3 4 5 6 7 8 9 10 11 12 13 14 15 16 17 18 19 20 21 22 23 24 25 26 27 28 29 30 31 32 33 34 35 36 37 38 39 40 41 42 43 44 45 46 47 48 49 50
000
ASUS44 KEWX 271910
RWREWX
SOUTH TEXAS REGIONAL WEATHER ROUNDUP
NATIONAL WEATHER SERVICE AUSTIN/SAN ANTONIO TX
200 PM CDT WED MAY 27 2020

NOTE: "FAIR" INDICATED FEW OR NO CLOUDS BELOW 12,000 FEET WITH NO
SIGNIFICANT WEATHER AND/OR OBSTRUCTIONS TO VISIBILITY.

* - THESE STATIONS ARE NOT NWS OR FAA STATIONS...AND ARE NOT SUBJECT
    TO NWS AND FAA QUALITY CONTROL.

TXZ171-172-183>190-272000-
TEXAS HILL COUNTRY AND EDWARDS PLATEAU

CITY           SKY/WX    TMP DP  RH WIND       PRES   REMARKS
JUNCTION       SUNNY     90  61  37 SW9       29.87F HX  90
*LLANO         MOSUNNY   88  64  45 SW5       29.89F
BURNET         SUNNY     85  64  49 SW12      29.89F
*HORSESHOE BAY SUNNY     90  64  43 S7        29.87F HX  91
*LAGO VISTA    MOSUNNY   85  69  59 W8        29.88F
*KERRVILLE     SUNNY     86  58  37 S13G21    29.90F
*FREDERICKSBRG SUNNY     86  60  40 S12       29.91S
*ROCKSPRINGS   SUNNY     88  54  31 SW9G17    29.97F
*BOERNE        SUNNY     82  61  47 S12G18    29.91F
HONDO          SUNNY     89  63  41 S13       29.88F HX  90
*UVALDE          N/A     88  66  47 S10G16    29.89F HX  91
DEL RIO        SUNNY     97  60  29 SE14G25   29.81F HX  97
*LAUGHLIN AFB  MOSUNNY   93  62  36 SE13G24   29.83F HX  93
*SPOFFORD      NOT AVBL
*EAGLE PASS    SUNNY     93  64  38 S14G20    29.85F HX  95
CARRIZO SPRGS  SUNNY     90  68  48 S9G16     29.85F HX  93
$$

TXZ173-191>194-202-209-217>225-228-272000-
CENTRAL AND SOUTH CENTRAL TEXAS

CITY           SKY/WX    TMP DP  RH WIND       PRES   REMARKS
GEORGETOWN     SUNNY     88  66  48 SW16      29.87F HX  90
*TAYLOR        MOSUNNY   88  68  52 SW14G21   29.84F HX  91
AUSTIN/BERGSTM MOSUNNY   88  70  55 S14G23    29.85F HX  93
AUSTIN/MABRY   SUNNY     89  69  51 MISG      29.85F HX  93
*PFLUGERVILLE  SUNNY     86  68  54 SW13G18   29.85F
SAN MARCOS     MOSUNNY   89  70  53 SW14      29.87F HX  94
NEW BRAUNFELS  SUNNY     90  68  48 SW14G23   29.86F HX  94
*RANDOLPH AFB  PTSUNNY   88  63  42 S13       29.87F
*SEGUIN        MOSUNNY   87  67  52 SW9G17    29.90F HX  90
SAN ANTONIO    MOSUNNY   90  64  42 S13G23    29.88F HX  91
STINSON FIELD  SUNNY     87  67  51 SW12      29.85F HX  90
*KELLY FIELD   MOSUNNY   89  65  45 SW8       29.85F HX  90
*PLEASANTON    SUNNY     91  69  48 S9G16     29.88F HX  95
*KENEDY        SUNNY     89  68  50 SW6       29.88F HX  93
*LA GRANGE     PTSUNNY   89  69  52 SW8       29.83F HX  93
*GIDDINGS      PTSUNNY   86  65  50 SW10G18   29.86F
*GONZALES      PTSUNNY   88  69  53 SW8G17    29.86F HX  92
$$

TXZ163>164-176>182-195>201-210>213-226-227-235-272000-
SOUTHEAST TEXAS

CITY           SKY/WX    TMP DP  RH WIND       PRES   REMARKS
COLLEGE STN    PTSUNNY   84  65  52 S9        29.82F THUNDER
*BRYAN         PTSUNNY   81  69  67 E3        29.86F
*CALDWELL      PTSUNNY   86  69  57 S13G20    29.84F
*CROCKETT      NOT AVBL
*BRENHAM       PTSUNNY   87  70  58 S7        29.84F HX  91
HUNTSVILLE     PTSUNNY   84  64  50 CALM      29.87F
CONROE         SUNNY     87  66  49 VRB3      29.88F
HOUSTON BUSH   MOSUNNY   89  65  44 W6        29.87F HX  91
HOUSTON HOBBY  MOSUNNY   89  65  44 W9        29.87F HX  91
*HOUSTON SW AP PTSUNNY   85  67  53 SW5       29.88F
PEARLAND       MOSUNNY   89  64  43 SW7       29.89F HX  90
HOUSTON HOOKS  MOSUNNY   87  67  51 VRB6      29.87F HX  90
ELLINGTON FLD  MOSUNNY   88  66  48 MISG      29.87F HX  90
SUGAR LAND     MOSUNNY   88  70  55 W7        29.87F HX  93
*HOUSTON EXEC  MOSUNNY   86  70  58 S12       29.88F HX  90
*CLEVELAND MUN PTSUNNY   85  57  38 CALM      29.89S
*WHARTON       SUNNY     87  64  46 S8        29.88F
*COLUMBUS      PTSUNNY   87  69  54 SW9       29.87F HX  91
*EAGLE LAKE    PTSUNNY   89  71  55 S8        29.86  HX  95
$$

TXZ214>216-236>238-272000-
THE UPPER TEXAS COAST

CITY           SKY/WX    TMP DP  RH WIND       PRES   REMARKS
*ORANGE        MOSUNNY   87  62  42 SW6       29.90F
PORT ARTHUR    SUNNY     86  62  44 SW5       29.88F
GALVESTON      MOSUNNY   86  73  65 S18       29.90F HX  93
ANGLETON       MOSUNNY   88  72  58 S17       29.88F HX  94
*BAY CITY      PTSUNNY   89  73  59 S9        29.89F HX  96
PALACIOS       SUNNY     86  71  60 S14       29.89F HX  91
$$

TXZ229>234-239>247-272000-
TEXAS COASTAL BEND AND RIO GRANDE PLAINS

CITY           SKY/WX    TMP DP  RH WIND       PRES   REMARKS
VICTORIA       MOSUNNY   91  67  44 S13G21    29.88F HX  94
*BEEVILLE      MOSUNNY   90  74  60 S13       29.88F HX  99
ROCKPORT       MOSUNNY   86  71  60 S13G22    29.89F HX  91
*PORT ARANSAS  MOSUNNY   84  73  67 S13       29.92F HX  90
*PORT LAVACA   SUNNY     89  73  59 S12       29.89F HX  96
*INGLESIDE     MOSUNNY   87  75  68 S17G23    29.89F HX  95
CORPUS CHRISTI MOSUNNY   86  73  65 S14       29.89F HX  93
CORPUS NAS     MOSUNNY   87  75  67 S16G22    29.89F HX  96
*ROBSTOWN      SUNNY     90  71  54 S10       29.89F HX  97
ALICE          PTSUNNY   90  71  53 S13G21    29.87  HX  96
KINGSVILLE NAS MOSUNNY   91  69  48 S12G22    29.88F HX  96
COTULLA        MOSUNNY   91  71  51 S12       29.86F HX  97
LAREDO         MOSUNNY   89  71  55 SE16      29.87F HX  95
$$

TXZ248>255-272000-
DEEP SOUTH TEXAS

CITY           SKY/WX    TMP DP  RH WIND       PRES   REMARKS
BROWNSVILLE    SUNNY     91  68  46 S10       29.89F HX  95
PORT ISABEL    SUNNY     89  70  53 SE13G21   29.90F HX  94
HARLINGEN      PTSUNNY   90  69  50 S13       29.89F HX  94
*HEBBRONVILLE  MOSUNNY   87  66  48 S13       29.91F
MCALLEN        MOSUNNY   91  71  51 S14G22    29.90F HX  97
*WESLACO       PTSUNNY   89  69  50 S14G20    29.89  HX  93
FALFURRIAS     NOT AVBL
EDINBURG       MOSUNNY   90  66  45 SE13      29.90F HX  92
*ZAPATA        NOT AVBL
$$

TXZ213>215-236>238-242>244-246-247-251-254-255-272000-
CMAN STATIONS

STATION/POSITION TIME  TEMP    WIND        PRES    WAVE
                       AIR SEA DIR/SP/G            HT/PER
                 (UTC) (F)     (DEG/KT/KT) (MB)    (FT/S)
SABINE PASS      1830   84 83  210/  9/ 15 1014.1
NORTH JETTY/GLS  1824   79 82  190/ 14/ 17 1011.4
EAGLE POINT      1830   83 80  190/ 12/ 13 1011.6
MORGANS POINT    1830   85 82  140/  8/ 10 1011.9
PORT O`CONNOR    1830   81 84  180/ 12/ 13 1012.4
PORT ARANSAS     1900   80 82  150/ 15/ 17 1012.3
MALAQUITE BEACH  1830   81 90  140/ 15/ 17 1012.5
BAFFIN BAY       1830   82 87  130/ 13/ 19 1012.8
PORT ISABEL      1830   85 81  150/ 12/ 15 1015.0
$$




USA.gov is the U.S. government's official web portal to all federal, state and local government web resources and services.